Погода в Большевике

Россия / Владимирская область     56°23′23″N   39°24′51″E
темп.,
°C
ветер,
м/с
пор.,
м/с
влажн.,
%
обл.,
%
осадки,
мм/ч
давл.,
гПа
погр.,
м
14 июня, пн
пн1400:00+15ююз348871 0.0 101054
03:00+15ююз358887 0.0 101198
06:00+16юз369010 0.0 1012154
09:00+21юз34720 0.0 1013508
12:00+23ююз12605 1.9 10141281
15:00+24ююв126455 2.0 1014885
18:00+21ююз2277100 0.2 101419
21:00+19юз2274100 0.2 101412
15 июня, вт
вт1500:00+18ююз1177100 0.0 101411
03:00+17ююв1181100 0.0 101411
06:00+18зсз018688 0.0 101429
09:00+22сз11705 1.6 1013218
12:00+24ююз22641 1.3 10121102
15:00+24зюз23622 1.3 10111259
18:00+24юз127388 1.2 101095
21:00+19зюз2283100 1.9 101013
16 июня, ср
ср1600:00+17зюз128862 1.1 100911
03:00+16з2292100 1.8 100932
06:00+17сз379677 1.2 1010213
09:00+18ссз6108284 1.8 1011523
12:00+19ссз687442 0.0 10121109
15:00+20с59680 0.4 10141516
18:00+18ссв58695 0.0 1015546
21:00+14ссз3378100 0.0 101731
17 июня, чт
чт1700:00+12ссз412720 0.0 1019222
03:00+10ссз35675 0.0 102161
06:00+12сз35785 0.0 1022128
09:00+17ссз35650 0.0 1023499
12:00+20сз46542 0.0 10231839
15:00+21сз465593 0.0 10232079
18:00+21сз36714 0.0 1024379
21:00+16сз22815 0.0 102415
18 июня, пт
пт1800:00+14зсз227769 0.0 102510
03:00+13з23780 0.0 102621
06:00+15зсз23800 0.0 102787
09:00+20з23690 0.0 1027397
12:00+23з23570 0.0 10261225
15:00+24з34545 0.0 10251515
18:00+24з35696 0.0 1025271
21:00+18зюз33755 0.0 102531